Home   Weather   13°03'N, 80°14'E   Past weeks
Flag for India

Past Weather in 13°03'N, 80°14'E, India — Yesterday and Last 2 Weeks

Now
88 °F

Scattered clouds.


Feels Like: 98 °F
Forecast: 86 / 79 °F
Wind: 7 mph from Northwest

Location: Madras / Minambakkam

Current Time: Oct 23, 2019 at 11:18:11 am

Latest Report: Oct 23, 2019 at 10:30 am


Visibility: 4 mi

Pressure: 29.80 "Hg

Humidity: 66%

Dew Point: 75 °F

Location of 13°03'N, 80°14'ELocation

Past Weather in 13°03'N, 80°14'E — Graph

°F

13°03'N, 80°14'E Temperature Yesterday

Maximum temperature yesterday: 81 °F (at 1:30 pm)
Minimum temperature yesterday: 75 °F (at 2:00 am)
Average temperature yesterday: 78 °F

High & Low Weather Summary for the Past Weeks

 TemperatureHumidityPressure
High93 °F (Oct 8, 12:30 pm)100% (Oct 15, 1:30 am)29.92 "Hg (Oct 15, 1:30 am)
Low75 °F (Oct 17, 6:30 am)53% (Oct 11, 11:00 am)29.71 "Hg (Oct 22, 2:30 pm)
Average83 °F83%29.83 "Hg
* Reported Oct 8 9:30 am — Oct 23 10:00 am, 13°03'N, 80°14'E. Weather by CustomWeather, © 2019

Note: Actual official high and low records may vary slightly from our data, if they occured in-between our weather recording intervals... More about our weather records

Advertising

13°03'N, 80°14'E Weather History for the Previous 24 Hours

Scroll right to see more
 ConditionsComfort  
Time TempWeatherWind HumidityBarometerVisibility
10:00 am
Wed, Oct 23
86 °FScattered clouds.7 mph70%29.80 "Hg4 mi
9:30 am86 °FPartly sunny.6 mph70%29.80 "Hg4 mi
9:00 am82 °FPartly sunny.6 mph84%29.80 "Hg4 mi
8:30 am82 °FPartly sunny.6 mph84%29.80 "Hg4 mi
8:00 am81 °FPartly sunny.6 mph89%29.80 "Hg4 mi
7:30 am79 °FFog.6 mph94%29.77 "Hg3 mi
7:00 am79 °FFog.5 mph89%29.77 "Hg3 mi
6:30 am77 °FFog.5 mph94%29.74 "Hg3 mi
6:00 am77 °FFog.5 mph94%29.74 "Hg3 mi
5:30 am77 °FFog.5 mph94%29.71 "Hg3 mi
5:00 am77 °FFog.5 mph94%29.71 "Hg3 mi
4:30 am79 °FFog.5 mph94%29.71 "Hg3 mi
4:00 am77 °FFog.3 mph94%29.71 "Hg3 mi
3:30 am77 °FFog.7 mph100%29.71 "Hg3 mi
3:00 am77 °FFog.6 mph100%29.71 "Hg3 mi
2:30 am77 °FFog.6 mph100%29.71 "Hg3 mi
2:00 am77 °FFog.3 mph94%29.74 "Hg3 mi
1:30 am77 °FFog.3 mph94%29.74 "Hg3 mi
1:00 am77 °FFog.3 mph94%29.77 "Hg3 mi
12:30 am77 °FFog.5 mph94%29.77 "Hg3 mi
12:00 am77 °FFog.5 mph94%29.77 "Hg3 mi
11:30 pm
Tue, Oct 22
77 °FFog.5 mph94%29.80 "Hg3 mi
11:00 pm77 °FFog.5 mph94%29.80 "Hg3 mi
10:30 pm77 °FFog.5 mph94%29.80 "Hg3 mi
10:00 pm77 °FFog.5 mph100%29.80 "Hg3 mi
9:30 pm77 °FFog.5 mph100%29.80 "Hg3 mi
9:00 pm77 °FFog.3 mph100%29.80 "Hg3 mi
8:30 pm79 °FFog.3 mph94%29.80 "Hg3 mi
8:00 pm79 °FFog.3 mph89%29.80 "Hg3 mi
7:30 pm79 °FFog.3 mph94%29.77 "Hg3 mi
7:00 pm79 °FFog.No wind94%29.77 "Hg3 mi
6:30 pm79 °FFog.No wind94%29.74 "Hg3 mi
6:00 pm79 °FFog.2 mph89%29.74 "Hg3 mi
5:30 pm81 °FFog.No wind84%29.74 "Hg3 mi
5:00 pm81 °FFog.2 mph84%29.71 "Hg3 mi
4:30 pm81 °FFog.3 mph84%29.71 "Hg3 mi
4:00 pm81 °FFog.5 mph84%29.71 "Hg3 mi
3:30 pm81 °FFog.5 mph84%29.71 "Hg3 mi
3:00 pm81 °FFog.5 mph89%29.71 "Hg3 mi
2:30 pm81 °FFog.3 mph89%29.71 "Hg3 mi
2:00 pm81 °FFog.5 mph84%29.74 "Hg3 mi
1:30 pm81 °FFog.5 mph89%29.74 "Hg3 mi
1:00 pm79 °FDrizzle. More clouds than sun.6 mph94%29.74 "Hg2 mi
12:30 pm79 °FDrizzle. More clouds than sun.6 mph94%29.77 "Hg2 mi
12:00 pm79 °FDrizzle. More clouds than sun.7 mph94%29.77 "Hg2 mi
11:30 am79 °FDrizzle. More clouds than sun.7 mph94%29.80 "Hg2 mi
11:00 am79 °FDrizzle. More clouds than sun.3 mph100%29.83 "Hg2 mi
Weather by CustomWeather, © 2019

See weather overview